Weather in Letichiv

Ukraine / Khmelnitsky District     49˚23′30″N   27˚37′23″E
temp.,
°C
wind,
m/s
gust,
m/s
humid.,
%
clouds,
%
prec.,
mm/h
press.,
hPa
HPBL,
m
27 november, fri
fri2723:00wsw34710 0.0 102276
02:00wsw36700 0.0 102296
05:00−1˚w388249 0.0 1020178
08:00wsw388175 0.0 1020174
11:00+3˚w5864100 0.0 1020357
14:00+4˚w4872100 0.0 1019527
17:00+2˚wnw3886100 0.0 1019350
20:00+1˚wnw3695100 0.1 1020307
28 november, sat
sat2823:00+2˚w4697100 0.4 1020307
02:00+2˚w2593100 0.6 1019310
05:00+1˚wsw239098 0.0 1019128
08:00+1˚sw368899 0.1 1019201
11:00+3˚wsw3577100 0.1 1019470
14:00+3˚wsw357398 0.3 1018705
17:00+2˚wnw1181100 0.1 101825
20:00+1˚ssw2397100 0.1 1019172
29 november, sun
sun2923:00+1˚wsw2396100 0.2 1018172
02:00wnw1198100 1.0 101964
05:00w2396100 0.6 1018221
08:00−2˚w2397100 0.6 1019102
11:00wnw348191 0.1 1019490
14:00w457388 0.1 1019734
17:00−1˚w357387 0.0 1020665
20:00−2˚wsw238484 0.0 1021101
30 november, mon
mon3023:00−2˚wsw238483 0.0 1022103
02:00−2˚w237783 0.0 102381
05:00−2˚wnw118642 0.0 102322
08:00−3˚wnw119147 0.0 102521
11:00nw237743 0.0 1026411
14:00+1˚nnw237043 0.0 1027742
17:00−1˚nnw348281 0.0 102893
20:00−2˚n358879 0.0 1029184
1 december, tue
tue123:00−1˚n3578100 0.0 1030642
02:00−1˚n3476100 0.1 1029566
05:00−1˚n2374100 0.0 1029578
08:00−2˚nne2475100 0.0 1029372
11:00−1˚ne236770 0.0 1028657
14:00ne236563 0.0 1026729
17:00−3˚ne238421 0.0 102648
20:00−4˚ne239211 0.0 102686